,,,PA_Meas_PMT16A,,PR_Meas_QMR101_102,,RH_Meas_QMH101,,SR_Meas_QMS101,,TA_Meas_QMH101,,GenWind,,GenWind,
date,time,status,PA,status,PR,status,RH,status,SR,status,TA,status,DirAvg,status,SpdAvg,
2009-03-21, 00:00:04,VALID,1003.52,VALID,0,VALID,85.8707,VALID,0,VALID,26.0381,VALID,10,VALID,0.932422,
2009-03-21, 00:01:04,VALID,1003.5,VALID,0,VALID,85.8631,VALID,0,VALID,26.0187,VALID,205,VALID,0.696875,
2009-03-21, 00:02:04,VALID,1003.5,VALID,0,VALID,85.7257,VALID,0,VALID,26.0401,VALID,324,VALID,1.24258,
2009-03-21, 00:03:04,VALID,1003.48,VALID,0,VALID,85.9241,VALID,0,VALID,25.9992,VALID,350,VALID,0.607031,
2009-03-21, 00:04:04,VALID,1003.52,VALID,0,VALID,86.0004,VALID,0,VALID,25.9797,VALID,297,VALID,0.581641,
2009-03-21, 00:05:04,VALID,1003.53,VALID,0,VALID,85.9622,VALID,0,VALID,25.9602,VALID,295,VALID,1.12969,
2009-03-21, 00:06:04,VALID,1003.53,VALID,0,VALID,86.0995,VALID,0,VALID,25.9622,VALID,267,VALID,0.294141,
2009-03-21, 00:07:04,VALID,1003.6,VALID,0,VALID,86.2979,VALID,0.100563,VALID,25.9622,VALID,336,VALID,1.07656,
2009-03-21, 00:08:04,VALID,1003.62,VALID,0,VALID,86.1682,VALID,0,VALID,25.9232,VALID,287,VALID,1.75703,
2009-03-21, 00:09:04,VALID,1003.63,VALID,0,VALID,86.3742,VALID,0,VALID,25.8823,VALID,346,VALID,0.651563,
2009-03-21, 00:10:04,VALID,1003.68,VALID,0,VALID,86.6107,VALID,0,VALID,25.8843,VALID,312,VALID,0.320703,
2009-03-21, 00:11:04,VALID,1003.64,VALID,0,VALID,86.5344,VALID,0,VALID,25.8434,VALID,301,VALID,0.959375,
2009-03-21, 00:12:04,VALID,1003.68,VALID,0,VALID,86.6107,VALID,0,VALID,25.8453,VALID,273,VALID,0.754687,
2009-03-21, 00:13:04,VALID,1003.71,VALID,0,VALID,86.6336,VALID,0,VALID,25.8044,VALID,357,VALID,0.993359,
2009-03-21, 00:14:04,VALID,1003.74,VALID,0,VALID,86.8472,VALID,0,VALID,25.8259,VALID,351,VALID,0.955078,
2009-03-21, 00:15:04,VALID,1003.76,VALID,0,VALID,86.7099,VALID,0,VALID,25.8064,VALID,299,VALID,1.86836,
2009-03-21, 00:16:04,VALID,1003.75,VALID,0,VALID,86.8167,VALID,0,VALID,25.8064,VALID,289,VALID,1.11367,
2009-03-21, 00:17:04,VALID,1003.77,VALID,0,VALID,86.8853,VALID,0,VALID,25.8064,VALID,352,VALID,0.826172,
2009-03-21, 00:18:04,VALID,1003.78,VALID,0,VALID,86.9464,VALID,0,VALID,25.7655,VALID,356,VALID,0.0898438,
2009-03-21, 00:19:04,VALID,1003.76,VALID,0,VALID,86.809,VALID,0,VALID,25.7674,VALID,341,VALID,0.570313,
2009-03-21, 00:20:04,VALID,1003.79,VALID,0,VALID,86.7938,VALID,0,VALID,25.7674,VALID,357,VALID,0.727344,
2009-03-21, 00:21:04,VALID,1003.81,VALID,0,VALID,86.8319,VALID,0,VALID,25.7674,VALID,321,VALID,0.55,
2009-03-21, 00:22:04,VALID,1003.8,VALID,0,VALID,86.8395,VALID,0,VALID,25.7265,VALID,330,VALID,0.317187,
2009-03-21, 00:23:04,VALID,1003.79,VALID,0,VALID,86.809,VALID,0,VALID,25.748,VALID,333,VALID,0.553906,
2009-03-21, 00:24:04,VALID,1003.79,VALID,0,VALID,86.7709,VALID,0,VALID,25.748,VALID,260,VALID,0.477344,
2009-03-21, 00:25:04,VALID,1003.79,VALID,0,VALID,86.7633,VALID,0,VALID,25.7285,VALID,279,VALID,0.150781,
2009-03-21, 00:26:04,VALID,1003.8,VALID,0,VALID,86.4962,VALID,0,VALID,25.7285,VALID,300,VALID,1.55469,
2009-03-21, 00:27:04,VALID,1003.82,VALID,0,VALID,86.9769,VALID,0,VALID,25.748,VALID,286,VALID,0.171094,
2009-03-21, 00:28:04,VALID,1003.83,VALID,0,VALID,86.8395,VALID,0,VALID,25.748,VALID,282,VALID,1.10312,
2009-03-21, 00:29:04,VALID,1003.9,VALID,0,VALID,86.9464,VALID,0,VALID,25.748,VALID,297,VALID,0.338672,
2009-03-21, 00:30:04,VALID,1003.92,VALID,0,VALID,86.9311,VALID,0,VALID,25.7285,VALID,235,VALID,0.644922,
2009-03-21, 00:31:04,VALID,1004.03,VALID,0,VALID,87.0532,VALID,0,VALID,25.7285,VALID,232,VALID,0.445313,
2009-03-21, 00:32:04,VALID,1004.11,VALID,0,VALID,87.2286,VALID,0,VALID,25.6876,VALID,231,VALID,0.723828,
2009-03-21, 00:33:04,VALID,1004.17,VALID,0,VALID,87.6482,VALID,0,VALID,25.6895,VALID,201,VALID,0.580859,
2009-03-21, 00:34:04,VALID,1004.24,VALID,0,VALID,84.7035,VALID,0,VALID,25.5921,VALID,203,VALID,2.85117,
2009-03-21, 00:35:04,VALID,1004.41,VALID,0,VALID,84.6958,VALID,0,VALID,25.5318,VALID,223,VALID,1.1457,
2009-03-21, 00:36:04,VALID,1004.41,VALID,0,VALID,82.8573,VALID,0,VALID,25.4149,VALID,249,VALID,1.50586,
2009-03-21, 00:37:04,VALID,1004.5,VALID,0,VALID,82.9259,VALID,0,VALID,25.3779,VALID,291,VALID,1.00547,
2009-03-21, 00:38:04,VALID,1004.58,VALID,0,VALID,83.3226,VALID,0,VALID,25.3195,VALID,279,VALID,2.06211,
2009-03-21, 00:39:04,VALID,1004.6,VALID,0,VALID,83.9863,VALID,0,VALID,25.2221,VALID,247,VALID,1.52891,
2009-03-21, 00:40:04,VALID,1004.64,VALID,0,VALID,84.7874,VALID,0,VALID,25.1442,VALID,265,VALID,2.40039,
2009-03-21, 00:41:04,VALID,1004.75,VALID,0,VALID,85.6266,VALID,0,VALID,25.0644,VALID,265,VALID,1.96992,
2009-03-21, 00:42:04,VALID,1004.74,VALID,0,VALID,86.1606,VALID,0,VALID,25.0255,VALID,267,VALID,1.38828,
2009-03-21, 00:43:04,VALID,1004.71,VALID,0,VALID,86.42,VALID,0,VALID,25.006,VALID,305,VALID,1.1,
2009-03-21, 00:44:04,VALID,1004.64,VALID,0,VALID,86.954,VALID,0,VALID,24.9885,VALID,194,VALID,1.48867,
2009-03-21, 00:45:04,VALID,1004.65,VALID,0,VALID,87.5338,VALID,0,VALID,24.93,VALID,255,VALID,1.65859,
2009-03-21, 00:46:04,VALID,1004.69,VALID,0,VALID,87.7703,VALID,0,VALID,24.8503,VALID,81,VALID,0.885156,
2009-03-21, 00:47:04,VALID,1004.74,VALID,0,VALID,87.9839,VALID,0,VALID,24.8132,VALID,275,VALID,1.04062,
2009-03-21, 00:48:04,VALID,1004.8,VALID,0,VALID,88.4264,VALID,0,VALID,24.7743,VALID,254,VALID,0.782031,
2009-03-21, 00:49:04,VALID,1004.85,VALID,0,VALID,88.5026,VALID,0,VALID,24.6945,VALID,279,VALID,1.43203,
2009-03-21, 00:50:04,VALID,1004.85,VALID,0,VALID,88.8841,VALID,0,VALID,24.6574,VALID,314,VALID,1.19023,
2009-03-21, 00:51:04,VALID,1004.85,VALID,0,VALID,89.174,VALID,0,VALID,24.5777,VALID,292,VALID,1.46211,
2009-03-21, 00:52:04,VALID,1004.87,VALID,0,VALID,89.5783,VALID,0,VALID,24.5777,VALID,281,VALID,1.84258,
2009-03-21, 00:53:04,VALID,1004.86,VALID,0,VALID,89.8911,VALID,0,VALID,24.5601,VALID,258,VALID,1.61211,
2009-03-21, 00:54:04,VALID,1004.9,VALID,0,VALID,90.0818,VALID,0,VALID,24.5406,VALID,302,VALID,1.82773,
2009-03-21, 00:55:04,VALID,1004.91,VALID,0,VALID,90.3488,VALID,0,VALID,24.4998,VALID,312,VALID,2.09844,
2009-03-21, 00:56:04,VALID,1004.91,VALID,0,VALID,90.5853,VALID,0,VALID,24.4998,VALID,230,VALID,0.962109,
2009-03-21, 00:57:04,VALID,1004.9,VALID,0,VALID,89.8911,VALID,0.100563,VALID,24.4609,VALID,293,VALID,2.30195,
2009-03-21, 00:58:04,VALID,1004.99,VALID,0,VALID,89.9064,VALID,0,VALID,24.422,VALID,283,VALID,0.829687,
2009-03-21, 00:59:04,VALID,1004.95,VALID,0,VALID,88.7468,VALID,0,VALID,24.3636,VALID,290,VALID,3.94922,
2009-03-21, 01:00:04,VALID,1004.97,VALID,0,VALID,88.8307,VALID,0,VALID,24.3265,VALID,273,VALID,2.19805,
2009-03-21, 01:01:04,VALID,1004.94,VALID,0,VALID,89.2045,VALID,0,VALID,24.2468,VALID,272,VALID,1.7332,
2009-03-21, 01:02:04,VALID,1005,VALID,0,VALID,89.38,VALID,0,VALID,24.1689,VALID,290,VALID,1.34258,
2009-03-21, 01:03:04,VALID,1005.01,VALID,0,VALID,89.7843,VALID,0,VALID,24.13,VALID,316,VALID,2.73906,
2009-03-21, 01:04:04,VALID,1005.03,VALID,0.5,VALID,90.5243,VALID,0,VALID,24.0929,VALID,278,VALID,2.76953,
2009-03-21, 01:05:04,VALID,1004.99,VALID,0,VALID,91.2185,VALID,0.100563,VALID,24.0132,VALID,284,VALID,4.10859,
2009-03-21, 01:06:04,VALID,1005.07,VALID,0.5,VALID,91.7831,VALID,0,VALID,23.9353,VALID,252,VALID,1.46016,
2009-03-21, 01:07:04,VALID,1005.11,VALID,0,VALID,91.3482,VALID,0,VALID,23.7991,VALID,278,VALID,2.43867,
2009-03-21, 01:08:04,VALID,1004.98,VALID,0.5,VALID,90.448,VALID,0.100563,VALID,23.585,VALID,298,VALID,3.57109,
2009-03-21, 01:09:04,VALID,1005.09,VALID,0,VALID,91.0431,VALID,0,VALID,23.4293,VALID,275,VALID,1.73008,
2009-03-21, 01:10:04,VALID,1005.08,VALID,0,VALID,91.2796,VALID,0,VALID,23.2931,VALID,279,VALID,2.70313,
2009-03-21, 01:11:04,VALID,1005.11,VALID,0.5,VALID,91.722,VALID,0,VALID,23.1586,VALID,285,VALID,1.32969,
2009-03-21, 01:12:04,VALID,1005.07,VALID,0,VALID,92.195,VALID,0,VALID,23.0825,VALID,257,VALID,2.10859,
2009-03-21, 01:13:04,VALID,1005.06,VALID,0,VALID,92.6375,VALID,0,VALID,22.9817,VALID,280,VALID,1.55,
2009-03-21, 01:14:04,VALID,1005.03,VALID,0.5,VALID,93.0647,VALID,0,VALID,22.9834,VALID,291,VALID,0.993359,
2009-03-21, 01:15:04,VALID,1005,VALID,0,VALID,93.3012,VALID,0,VALID,22.964,VALID,217,VALID,1.08242,
2009-03-21, 01:16:04,VALID,1004.96,VALID,0.5,VALID,93.553,VALID,0,VALID,22.964,VALID,207,VALID,1.21563,
2009-03-21, 01:17:04,VALID,1004.89,VALID,0,VALID,93.7055,VALID,0,VALID,22.9251,VALID,237,VALID,1.48594,
2009-03-21, 01:18:04,VALID,1004.89,VALID,0,VALID,93.9344,VALID,0,VALID,22.964,VALID,277,VALID,1.07031,
2009-03-21, 01:19:04,VALID,1004.82,VALID,0,VALID,94.0641,VALID,0,VALID,22.964,VALID,293,VALID,0.792578,
2009-03-21, 01:20:04,VALID,1004.82,VALID,0.5,VALID,94.1862,VALID,0,VALID,23.0046,VALID,295,VALID,1.67266,
2009-03-21, 01:21:04,VALID,1004.76,VALID,0,VALID,94.2701,VALID,0,VALID,22.9817,VALID,298,VALID,2.00273,
2009-03-21, 01:22:04,VALID,1004.72,VALID,0,VALID,94.293,VALID,0,VALID,23.0224,VALID,248,VALID,0.707812,
2009-03-21, 01:23:04,VALID,1004.67,VALID,0,VALID,94.3692,VALID,0,VALID,23.0224,VALID,254,VALID,0.8875,
2009-03-21, 01:24:04,VALID,1004.69,VALID,0,VALID,94.2853,VALID,0,VALID,22.9817,VALID,293,VALID,1.85234,
2009-03-21, 01:25:04,VALID,1004.66,VALID,0,VALID,94.3082,VALID,0,VALID,22.9817,VALID,298,VALID,1.53516,
2009-03-21, 01:26:04,VALID,1004.62,VALID,0,VALID,94.3235,VALID,0,VALID,22.9834,VALID,264,VALID,1.57773,
2009-03-21, 01:27:04,VALID,1004.57,VALID,0.5,VALID,94.3769,VALID,0,VALID,22.9428,VALID,300,VALID,0.892578,
2009-03-21, 01:28:04,VALID,1004.57,VALID,0,VALID,94.3616,VALID,0,VALID,22.9445,VALID,283,VALID,2.13398,
2009-03-21, 01:29:04,VALID,1004.57,VALID,0.5,VALID,94.3387,VALID,0,VALID,22.9445,VALID,291,VALID,1.84258,
2009-03-21, 01:30:04,VALID,1004.53,VALID,0,VALID,94.3464,VALID,0,VALID,22.9056,VALID,305,VALID,1.46953,
2009-03-21, 01:31:04,VALID,1004.49,VALID,0.5,VALID,94.4455,VALID,0,VALID,22.9251,VALID,281,VALID,1.25703,
2009-03-21, 01:32:04,VALID,1004.42,VALID,0,VALID,94.4532,VALID,0,VALID,22.9056,VALID,303,VALID,1.67305,
2009-03-21, 01:33:04,VALID,1004.41,VALID,0,VALID,94.5295,VALID,0,VALID,22.9056,VALID,294,VALID,1.48672,
2009-03-21, 01:34:04,VALID,1004.4,VALID,0.5,VALID,94.5829,VALID,0,VALID,22.9039,VALID,291,VALID,1.05898,
2009-03-21, 01:35:04,VALID,1004.31,VALID,0,VALID,94.6439,VALID,0,VALID,22.8827,VALID,282,VALID,0.801562,
2009-03-21, 01:36:04,VALID,1004.29,VALID,0,VALID,94.6897,VALID,0,VALID,22.964,VALID,344,VALID,0.491406,
2009-03-21, 01:37:04,VALID,1004.26,VALID,0,VALID,94.7202,VALID,0,VALID,22.9428,VALID,289,VALID,1.29141,
2009-03-21, 01:38:04,VALID,1004.23,VALID,0,VALID,94.7583,VALID,0,VALID,22.964,VALID,291,VALID,1.50508,
2009-03-21, 01:39:04,VALID,1004.14,VALID,0,VALID,94.7812,VALID,0,VALID,22.9834,VALID,293,VALID,1.61172,
2009-03-21, 01:40:04,VALID,1004.03,VALID,0,VALID,94.8422,VALID,0,VALID,22.9834,VALID,304,VALID,0.846875,
2009-03-21, 01:41:04,VALID,1003.99,VALID,0.5,VALID,94.8575,VALID,0,VALID,22.9817,VALID,316,VALID,0.727344,
2009-03-21, 01:42:04,VALID,1003.93,VALID,0,VALID,94.8956,VALID,0,VALID,23.0012,VALID,9,VALID,0.998828,
2009-03-21, 01:43:04,VALID,1003.93,VALID,0,VALID,94.9262,VALID,0,VALID,22.9817,VALID,276,VALID,0.327344,
2009-03-21, 01:44:04,VALID,1003.86,VALID,0,VALID,94.949,VALID,0,VALID,23.0206,VALID,296,VALID,1.45352,
2009-03-21, 01:45:04,VALID,1003.85,VALID,0,VALID,94.9414,VALID,0.100563,VALID,23.0401,VALID,334,VALID,0.580078,
2009-03-21, 01:46:04,VALID,1003.87,VALID,0,VALID,94.9948,VALID,0.100563,VALID,23.0401,VALID,286,VALID,1.95664,
2009-03-21, 01:47:04,VALID,1003.86,VALID,0,VALID,94.9948,VALID,0,VALID,23.0807,VALID,297,VALID,1.45703,
2009-03-21, 01:48:04,VALID,1003.88,VALID,0,VALID,95.0177,VALID,0,VALID,23.0807,VALID,335,VALID,0.529297,
2009-03-21, 01:49:04,VALID,1003.87,VALID,0,VALID,95.0406,VALID,0,VALID,23.0984,VALID,296,VALID,1.90078,
2009-03-21, 01:50:04,VALID,1003.84,VALID,0,VALID,95.0635,VALID,0,VALID,23.0984,VALID,303,VALID,1.93125,
2009-03-21, 01:51:04,VALID,1003.8,VALID,0,VALID,95.0787,VALID,0,VALID,23.1391,VALID,285,VALID,1.70859,
2009-03-21, 01:52:04,VALID,1003.77,VALID,0,VALID,95.0787,VALID,0,VALID,23.1586,VALID,299,VALID,1.44141,
2009-03-21, 01:53:04,VALID,1003.78,VALID,0,VALID,95.094,VALID,0,VALID,23.1568,VALID,269,VALID,1.2707,
2009-03-21, 01:54:04,VALID,1003.76,VALID,0,VALID,95.1474,VALID,0,VALID,23.217,VALID,356,VALID,0.75,
2009-03-21, 01:55:04,VALID,1003.77,VALID,0,VALID,95.1398,VALID,0,VALID,23.2364,VALID,292,VALID,1.33477,
2009-03-21, 01:56:04,VALID,1003.77,VALID,0,VALID,95.0711,VALID,0,VALID,23.2364,VALID,303,VALID,1.89297,
2009-03-21, 01:57:04,VALID,1003.74,VALID,0.5,VALID,95.0177,VALID,0,VALID,23.1957,VALID,312,VALID,2.35391,
2009-03-21, 01:58:04,VALID,1003.73,VALID,0,VALID,95.0406,VALID,0,VALID,23.1957,VALID,298,VALID,1.21953,
2009-03-21, 01:59:04,VALID,1003.7,VALID,0,VALID,95.0558,VALID,0,VALID,23.217,VALID,310,VALID,1.35938,
2009-03-21, 02:00:04,VALID,1003.68,VALID,0,VALID,95.0101,VALID,0,VALID,23.1568,VALID,267,VALID,0.447266,
2009-03-21, 02:01:04,VALID,1003.65,VALID,0,VALID,95.0024,VALID,0,VALID,23.1568,VALID,286,VALID,1.52695,
2009-03-21, 02:02:04,VALID,1003.67,VALID,0,VALID,95.0177,VALID,0,VALID,23.1798,VALID,306,VALID,1.41055,
2009-03-21, 02:03:04,VALID,1003.66,VALID,0,VALID,95.0482,VALID,0,VALID,23.178,VALID,303,VALID,0.787109,
2009-03-21, 02:04:04,VALID,1003.63,VALID,0,VALID,94.9643,VALID,0,VALID,23.1179,VALID,281,VALID,2.17617,
2009-03-21, 02:05:04,VALID,1003.63,VALID,0,VALID,94.9796,VALID,0,VALID,23.1391,VALID,247,VALID,0.586328,
2009-03-21, 02:06:04,VALID,1003.58,VALID,0,VALID,95.0406,VALID,0,VALID,23.1374,VALID,304,VALID,0.644531,
2009-03-21, 02:07:04,VALID,1003.59,VALID,0,VALID,95.0253,VALID,0,VALID,23.1179,VALID,312,VALID,0.426953,
2009-03-21, 02:08:04,VALID,1003.59,VALID,0,VALID,95.0406,VALID,0,VALID,23.1374,VALID,301,VALID,0.771094,
2009-03-21, 02:09:04,VALID,1003.65,VALID,0,VALID,95.0101,VALID,0,VALID,23.1179,VALID,293,VALID,1.075,
2009-03-21, 02:10:04,VALID,1003.64,VALID,0.5,VALID,95.0177,VALID,0,VALID,23.0984,VALID,286,VALID,1.14766,
2009-03-21, 02:11:04,VALID,1003.6,VALID,0,VALID,95.0177,VALID,0,VALID,23.0984,VALID,325,VALID,0.663672,
2009-03-21, 02:12:04,VALID,1003.55,VALID,0,VALID,95.0482,VALID,0,VALID,23.0984,VALID,350,VALID,0.420312,
2009-03-21, 02:13:04,VALID,1003.52,VALID,0,VALID,95.0482,VALID,0,VALID,23.079,VALID,338,VALID,0.730469,
2009-03-21, 02:14:04,VALID,1003.51,VALID,0,VALID,95.033,VALID,0,VALID,23.1002,VALID,344,VALID,0.730078,
2009-03-21, 02:15:04,VALID,1003.46,VALID,0,VALID,94.9948,VALID,0,VALID,23.0595,VALID,57,VALID,0.627344,
2009-03-21, 02:16:04,VALID,1003.42,VALID,0,VALID,94.9719,VALID,0,VALID,23.0206,VALID,292,VALID,1.1375,
2009-03-21, 02:17:04,VALID,1003.44,VALID,0,VALID,95.0024,VALID,0,VALID,23.0206,VALID,338,VALID,0.40625,
2009-03-21, 02:18:04,VALID,1003.42,VALID,0,VALID,95.0177,VALID,0,VALID,23.0029,VALID,352,VALID,0.794531,
2009-03-21, 02:19:04,VALID,1003.44,VALID,0,VALID,95.0101,VALID,0,VALID,23.0012,VALID,347,VALID,0.776953,
2009-03-21, 02:20:04,VALID,1003.48,VALID,0,VALID,95.033,VALID,0,VALID,22.9622,VALID,354,VALID,0.620313,
2009-03-21, 02:21:04,VALID,1003.41,VALID,0,VALID,95.0024,VALID,0,VALID,22.9622,VALID,344,VALID,1.25234,
2009-03-21, 02:22:04,VALID,1003.41,VALID,0,VALID,95.0558,VALID,0,VALID,22.9817,VALID,350,VALID,0.411328,
2009-03-21, 02:23:04,VALID,1003.37,VALID,0,VALID,95.0711,VALID,0,VALID,22.9622,VALID,286,VALID,0.835547,
2009-03-21, 02:24:04,VALID,1003.34,VALID,0,VALID,95.0864,VALID,0,VALID,22.9817,VALID,280,VALID,0.0796875,
2009-03-21, 02:25:04,VALID,1003.3,VALID,0,VALID,95.0711,VALID,0,VALID,23.0029,VALID,275,VALID,0.848828,
2009-03-21, 02:26:04,VALID,1003.27,VALID,0,VALID,95.0635,VALID,0,VALID,22.9817,VALID,337,VALID,0.858594,
2009-03-21, 02:27:04,VALID,1003.27,VALID,0,VALID,95.0482,VALID,0,VALID,22.9834,VALID,291,VALID,0.869922,
2009-03-21, 02:28:04,VALID,1003.26,VALID,0,VALID,95.0711,VALID,0,VALID,22.9817,VALID,282,VALID,0.326562,
2009-03-21, 02:29:04,VALID,1003.27,VALID,0,VALID,95.0406,VALID,0,VALID,23.0029,VALID,276,VALID,0.753906,
2009-03-21, 02:30:04,VALID,1003.23,VALID,0,VALID,95.0482,VALID,0,VALID,22.9817,VALID,278,VALID,0.303906,
2009-03-21, 02:31:04,VALID,1003.22,VALID,0,VALID,95.0253,VALID,0,VALID,22.9622,VALID,301,VALID,0.848047,
2009-03-21, 02:32:04,VALID,1003.21,VALID,0,VALID,95.0482,VALID,0,VALID,22.9817,VALID,285,VALID,0.950781,
2009-03-21, 02:33:04,VALID,1003.19,VALID,0,VALID,95.0864,VALID,0,VALID,22.9605,VALID,287,VALID,0.65625,
2009-03-21, 02:34:04,VALID,1003.2,VALID,0,VALID,95.094,VALID,0,VALID,23.0012,VALID,283,VALID,0.79375,
2009-03-21, 02:35:04,VALID,1003.21,VALID,0,VALID,95.0864,VALID,0,VALID,23.0012,VALID,283,VALID,0.370703,
2009-03-21, 02:36:04,VALID,1003.2,VALID,0,VALID,95.1093,VALID,0,VALID,23.0012,VALID,283,VALID,0.74375,
2009-03-21, 02:37:04,VALID,1003.22,VALID,0,VALID,95.1321,VALID,0,VALID,23.0206,VALID,285,VALID,0.184766,
2009-03-21, 02:38:04,VALID,1003.22,VALID,0,VALID,95.1321,VALID,0,VALID,23.0613,VALID,285,VALID,0.0226563,
2009-03-21, 02:39:04,VALID,1003.18,VALID,0,VALID,95.1169,VALID,0,VALID,23.0401,VALID,285,VALID,0.178516,
2009-03-21, 02:40:04,VALID,1003.2,VALID,0,VALID,95.1245,VALID,0,VALID,23.0401,VALID,285,VALID,0.585547,
2009-03-21, 02:41:04,VALID,1003.18,VALID,0,VALID,95.0711,VALID,0,VALID,23.0418,VALID,299,VALID,0.527344,
2009-03-21, 02:42:04,VALID,1003.16,VALID,0,VALID,95.1474,VALID,0,VALID,23.0595,VALID,299,VALID,0.0136719,
2009-03-21, 02:43:04,VALID,1003.15,VALID,0,VALID,95.1245,VALID,0,VALID,23.0613,VALID,299,VALID,0.0171875,
2009-03-21, 02:44:04,VALID,1003.09,VALID,0,VALID,95.1474,VALID,0,VALID,23.1002,VALID,299,VALID,0.103516,
2009-03-21, 02:45:04,VALID,1003.08,VALID,0,VALID,95.155,VALID,0,VALID,23.0595,VALID,299,VALID,0.0539063,
2009-03-21, 02:46:04,VALID,1003.08,VALID,0,VALID,95.1321,VALID,0,VALID,23.079,VALID,298,VALID,0.00351562,
2009-03-21, 02:47:04,VALID,1003.07,VALID,0,VALID,95.1474,VALID,0.100563,VALID,23.079,VALID,298,VALID,0.0246094,
2009-03-21, 02:48:04,VALID,1003.01,VALID,0,VALID,95.1169,VALID,0,VALID,23.079,VALID,299,VALID,0.292188,
2009-03-21, 02:49:04,VALID,1003,VALID,0,VALID,95.0864,VALID,0,VALID,23.0595,VALID,292,VALID,0.964844,
2009-03-21, 02:50:04,VALID,1002.94,VALID,0,VALID,95.1474,VALID,0,VALID,23.0401,VALID,301,VALID,0.913672,
2009-03-21, 02:51:04,VALID,1002.9,VALID,0,VALID,95.1779,VALID,0,VALID,23.079,VALID,289,VALID,1.26211,
2009-03-21, 02:52:04,VALID,1002.85,VALID,0,VALID,95.1245,VALID,0,VALID,23.0595,VALID,283,VALID,1.5,
2009-03-21, 02:53:04,VALID,1002.78,VALID,0.5,VALID,95.1398,VALID,0,VALID,23.0613,VALID,297,VALID,1.22305,
2009-03-21, 02:54:04,VALID,1002.77,VALID,0,VALID,95.1703,VALID,0,VALID,23.0401,VALID,297,VALID,1.06133,
2009-03-21, 02:55:04,VALID,1002.76,VALID,0,VALID,95.1627,VALID,0.100563,VALID,23.0595,VALID,295,VALID,1.4332,
2009-03-21, 02:56:04,VALID,1002.73,VALID,0,VALID,95.2008,VALID,0,VALID,23.1002,VALID,300,VALID,1.625,
2009-03-21, 02:57:04,VALID,1002.73,VALID,0,VALID,95.2084,VALID,0,VALID,23.1179,VALID,293,VALID,1.6957,
2009-03-21, 02:58:04,VALID,1002.7,VALID,0,VALID,95.2161,VALID,0,VALID,23.1568,VALID,288,VALID,1.99531,
2009-03-21, 02:59:04,VALID,1002.71,VALID,0,VALID,95.2161,VALID,0,VALID,23.1763,VALID,306,VALID,1.14922,
2009-03-21, 03:00:04,VALID,1002.71,VALID,0,VALID,95.2161,VALID,0.100563,VALID,23.2152,VALID,296,VALID,1.93633,
2009-03-21, 03:01:04,VALID,1002.71,VALID,0,VALID,95.2313,VALID,0,VALID,23.2541,VALID,316,VALID,1.30547,
2009-03-21, 03:02:04,VALID,1002.72,VALID,0,VALID,95.2313,VALID,0,VALID,23.2913,VALID,309,VALID,1.30938,
2009-03-21, 03:03:04,VALID,1002.71,VALID,0,VALID,95.2161,VALID,0,VALID,23.332,VALID,290,VALID,2.17344,
2009-03-21, 03:04:04,VALID,1002.72,VALID,0,VALID,95.1855,VALID,0,VALID,23.3709,VALID,295,VALID,1.67031,
2009-03-21, 03:05:04,VALID,1002.68,VALID,0,VALID,95.1398,VALID,0.100563,VALID,23.4293,VALID,284,VALID,1.16602,
2009-03-21, 03:06:04,VALID,1002.67,VALID,0,VALID,95.1627,VALID,0,VALID,23.4505,VALID,287,VALID,2.46133,
2009-03-21, 03:07:04,VALID,1002.69,VALID,0,VALID,95.1474,VALID,0,VALID,23.4877,VALID,288,VALID,1.81719,
2009-03-21, 03:08:04,VALID,1002.65,VALID,0,VALID,95.1093,VALID,0,VALID,23.5478,VALID,284,VALID,2.16367,
2009-03-21, 03:09:04,VALID,1002.64,VALID,0,VALID,95.0711,VALID,0,VALID,23.546,VALID,273,VALID,2.06406,
2009-03-21, 03:10:04,VALID,1002.57,VALID,0,VALID,95.0101,VALID,0.100563,VALID,23.585,VALID,305,VALID,2.23906,
2009-03-21, 03:11:04,VALID,1002.5,VALID,0,VALID,94.9796,VALID,0,VALID,23.585,VALID,304,VALID,2.55,
2009-03-21, 03:12:04,VALID,1002.59,VALID,0,VALID,94.8804,VALID,0,VALID,23.6239,VALID,286,VALID,1.32461,
2009-03-21, 03:13:04,VALID,1002.51,VALID,0,VALID,94.8117,VALID,0,VALID,23.6841,VALID,298,VALID,1.22539,
2009-03-21, 03:14:04,VALID,1002.52,VALID,0,VALID,94.7965,VALID,0,VALID,23.6841,VALID,350,VALID,1.56562,
2009-03-21, 03:15:04,VALID,1002.54,VALID,0,VALID,94.766,VALID,0,VALID,23.7035,VALID,296,VALID,0.755078,
2009-03-21, 03:16:04,VALID,1002.57,VALID,0,VALID,94.7583,VALID,0,VALID,23.7248,VALID,277,VALID,1.24766,
2009-03-21, 03:17:04,VALID,1002.55,VALID,0,VALID,94.7354,VALID,0,VALID,23.7035,VALID,316,VALID,1.26016,
2009-03-21, 03:18:04,VALID,1002.53,VALID,0,VALID,94.6973,VALID,0,VALID,23.7035,VALID,326,VALID,1.4957,
2009-03-21, 03:19:04,VALID,1002.54,VALID,0,VALID,94.6668,VALID,0,VALID,23.7443,VALID,297,VALID,1.71719,
2009-03-21, 03:20:04,VALID,1002.55,VALID,0,VALID,94.6286,VALID,0,VALID,23.723,VALID,332,VALID,0.927344,
2009-03-21, 03:21:04,VALID,1002.53,VALID,0,VALID,94.5905,VALID,0,VALID,23.723,VALID,287,VALID,1.2625,
2009-03-21, 03:22:04,VALID,1002.59,VALID,0,VALID,94.5676,VALID,0,VALID,23.7425,VALID,287,VALID,0.930859,
2009-03-21, 03:23:04,VALID,1002.54,VALID,0,VALID,94.5295,VALID,0,VALID,23.7443,VALID,303,VALID,1.51484,
2009-03-21, 03:24:04,VALID,1002.56,VALID,0,VALID,94.4913,VALID,0,VALID,23.7425,VALID,355,VALID,1.1,
2009-03-21, 03:25:04,VALID,1002.61,VALID,0,VALID,94.4837,VALID,0,VALID,23.7637,VALID,325,VALID,1.09805,
2009-03-21, 03:26:04,VALID,1002.61,VALID,0,VALID,94.4532,VALID,0,VALID,23.7619,VALID,2,VALID,0.434766,
2009-03-21, 03:27:04,VALID,1002.63,VALID,0,VALID,94.3998,VALID,0,VALID,23.7619,VALID,291,VALID,0.551953,
2009-03-21, 03:28:04,VALID,1002.63,VALID,0,VALID,94.3769,VALID,0,VALID,23.7,VALID,351,VALID,1.31992,
2009-03-21, 03:29:04,VALID,1002.7,VALID,0,VALID,94.3998,VALID,0,VALID,23.7425,VALID,309,VALID,0.28125,
2009-03-21, 03:30:04,VALID,1002.72,VALID,0,VALID,94.3921,VALID,0,VALID,23.7212,VALID,306,VALID,0.69375,
2009-03-21, 03:31:04,VALID,1002.71,VALID,0,VALID,94.3845,VALID,0,VALID,23.723,VALID,303,VALID,0.545703,
2009-03-21, 03:32:04,VALID,1002.7,VALID,0,VALID,94.3845,VALID,0,VALID,23.723,VALID,270,VALID,0.602734,
2009-03-21, 03:33:04,VALID,1002.71,VALID,0,VALID,94.3921,VALID,0.100563,VALID,23.7212,VALID,286,VALID,0.305469,
2009-03-21, 03:34:04,VALID,1002.69,VALID,0,VALID,94.3387,VALID,0,VALID,23.7017,VALID,291,VALID,2.02305,
2009-03-21, 03:35:04,VALID,1002.69,VALID,0,VALID,94.2396,VALID,0,VALID,23.7212,VALID,291,VALID,1.73125,
2009-03-21, 03:36:04,VALID,1002.65,VALID,0,VALID,94.2167,VALID,0.100563,VALID,23.7407,VALID,277,VALID,1.25391,
2009-03-21, 03:37:04,VALID,1002.61,VALID,0,VALID,94.209,VALID,0,VALID,23.7814,VALID,269,VALID,0.775391,
2009-03-21, 03:38:04,VALID,1002.56,VALID,0,VALID,94.1404,VALID,0,VALID,23.7601,VALID,262,VALID,1.00156,
2009-03-21, 03:39:04,VALID,1002.53,VALID,0,VALID,94.1251,VALID,0,VALID,23.7601,VALID,285,VALID,1.34297,
2009-03-21, 03:40:04,VALID,1002.55,VALID,0,VALID,94.1251,VALID,0,VALID,23.7796,VALID,316,VALID,1.1957,
2009-03-21, 03:41:04,VALID,1002.48,VALID,0,VALID,94.0641,VALID,0,VALID,23.7796,VALID,320,VALID,0.778516,
2009-03-21, 03:42:04,VALID,1002.47,VALID,0,VALID,94.0412,VALID,0.100563,VALID,23.7796,VALID,258,VALID,0.410547,
2009-03-21, 03:43:04,VALID,1002.47,VALID,0,VALID,93.9802,VALID,0,VALID,23.8203,VALID,287,VALID,1.05469,
2009-03-21, 03:44:04,VALID,1002.47,VALID,0,VALID,94.0107,VALID,0,VALID,23.7778,VALID,323,VALID,0.288281,